Tracking 20083 objects as of 12-Dec-2019
HD Live streaming from Space Station
objects crossing your sky now

COSMOS 2251 DEB

Track COSMOS 2251 DEB now!
10-day predictions


NORAD ID: 33889
Int'l Code: 1993-036CS
Perigee: 516.1 km
Apogee: 547.1 km
Inclination: 74.1 °
Period: 95.1 minutes
Semi major axis: 6902 km
RCS: 0.021 m2 (small)
Launch date: June 16, 1993
Source: Commonwealth of Independent States (former USSR) (CIS)
Launch site: PLESETSK MISSILE AND SPACE COMPLEX (PKMTR)

Note: This is SATELLITE DEBRIS
aabbcc
Your satellite tracking list
Your tracking list is empty




NASA's NSSDC Master Catalog

Two Line Element Set (TLE):
1 33889U 93036CS  19346.27319913  .00005401  00000-0  29918-3 0  9992
2 33889  74.0974 204.7629 0022437  16.0948 344.0954 15.13851829583884
Source of the keplerian elements: AFSPC